Location: Feigenhofen
(48.4939°N, 10.7793°E)
Time: 16:11:42
(UTC+00:00)

CZ-4C R/B - Pass Details

Date: 26 May 2022
Orbit: 582 x 1419 km, 63.4° (Epoch: 28 June)

Event Time Altitude Azimuth Distance (km) Brightness Sun altitude
Rises 00:14:25 0° 315° (NW) 3,866 6.0 -19.1°
Reaches altitude 10° 00:17:02 10° 309° (NW) 3,022 5.3 -19.0°
Maximum altitude 00:23:55 43° 241° (WSW) 1,719 3.4 -18.7°
Enters shadow 00:27:59 27° 189° (S) 2,355 3.9 -18.5°
